Location: Pradons
(44.4746°N, 4.3578°E)
Time: 19:07:56
(UTC+00:00)

Cosmos 1703 - Pass Details

Date: 09 August 2020
Orbit: 523 x 541 km, 82.5° (Epoch: 01 October)

Event Time Altitude Azimuth Distance (km) Brightness Sun altitude
Rises 03:46:02 0° 344° (NNW) 2,710 7.1 -9.1°
Reaches altitude 10° 03:48:17 10° 337° (NNW) 1,812 6.1 -8.8°
Maximum altitude 03:52:00 40° 267° (W) 813 3.8 -8.2°
Drops below altitude 10° 03:55:42 10° 198° (SSW) 1,792 5.5 -7.7°
Sets 03:57:55 0° 191° (S) 2,675 6.4 -7.3°
